QPF
0.01 0.01 0.01 0.01 0.01 0.01 0.01 0.01 0.01 0.01 0.02 0.02 0.02 0.02 0.02 0.01 0.01 0.02 0.01 0.02 0.05 0.02 0.00 0.00 0.01 0.03 0.04 0.04 0.06 0.08 0.03 0.01 0.00 0.01 0.04 0.05 0.06 0.05 0.03 0.07 0.02 0.00 0.01 0.00 0.00 0.00 0.01 0.00 0.01 0.02 0.01 0.00 0.00 0.00
0.01 0.01 0.01 0.01 0.00 0.01 0.01 0.01 0.01 0.01 0.01 0.01 0.01 0.02 0.02 0.02 0.01 0.03 0.02 0.01 0.05 0.04 0.00 0.01 0.01 0.00 0.02 0.04 0.04 0.02 0.01 0.00 0.02 0.04 0.06 0.07 0.06 0.04 0.03 0.06 0.03 0.01 0.00 0.00 0.00 0.00 0.03 0.01 0.01 0.00 0.00 0.00 0.00 0.00
0.01 0.01 0.01 0.01 0.01 0.00 0.00 0.00 0.00 0.00 0.00 0.00 0.01 0.01 0.01 0.02 0.03 0.02 0.01 0.02 0.04 0.04 0.01 0.00 0.00 0.00 0.00 0.00 0.04 0.04 0.02 0.02 0.04 0.06 0.03 0.06 0.05 0.04 0.03 0.04 0.05 0.01 0.00 0.03 0.04 0.06 0.05 0.02 0.00 0.00 0.00 0.00 0.00 0.00
0.01 0.00 0.00 0.00 0.00 0.00 0.00 0.00 0.00 0.00 0.00 0.00 0.01 0.01 0.01 0.01 0.02 0.02 0.01 0.03 0.02 0.02 0.02 0.00 0.00 0.00 0.00 0.00 0.01 0.04 0.02 0.02 0.05 0.05 0.05 0.04 0.04 0.02 0.05 0.04 0.03 0.02 0.00 0.01 0.03 0.03 0.04 0.01 0.00 0.00 0.00 0.00 0.00 0.00
0.00 0.00 0.00 0.00 0.00 0.00 0.00 0.00 0.00 0.00 0.00 0.00 0.00 0.01 0.00 0.01 0.02 0.01 0.00 0.01 0.01 0.01 0.02 0.00 0.00 0.00 0.00 0.00 0.00 0.01 0.01 0.02 0.04 0.03 0.03 0.03 0.04 0.02 0.02 0.02 0.03 0.02 0.03 0.03 0.03 0.00 0.01 0.00 0.00 0.00 0.00 0.00 0.00 0.00
0.00 0.00 0.00 0.00 0.00 0.00 0.00 0.00 0.00 0.00 0.00 0.01 0.02 0.01 0.01 0.01 0.02 0.00 0.01 0.01 0.01 0.02 0.05 0.03 0.02 0.00 0.00 0.00 0.00 0.00 0.01 0.02 0.02 0.01 0.02 0.03 0.03 0.04 0.04 0.04 0.03 0.00 0.00 0.00 0.00 0.00 0.00 0.00 0.00 0.00 0.00 0.00 0.00 0.00
0.00 0.00 0.00 0.00 0.00 0.00 0.00 0.00 0.00 0.00 0.01 0.02 0.02 0.01 0.00 0.01 0.01 0.00 0.01 0.00 0.00 0.03 0.04 0.03 0.02 0.02 0.00 0.00 0.01 0.02 0.02 0.02 0.01 0.00 0.01 0.04 0.04 0.03 0.03 0.01 0.00 0.00 0.00 0.00 0.00 0.00 0.00 0.00 0.00 0.00 0.00 0.00 0.00 0.00
0.00 0.00 0.00 0.00 0.00 0.00 0.01 0.01 0.00 0.01 0.02 0.04 0.01 0.00 0.01 0.00 0.00 0.01 0.00 0.00 0.01 0.01 0.02 0.02 0.03 0.02 0.01 0.02 0.04 0.04 0.02 0.01 0.00 0.01 0.01 0.02 0.03 0.05 0.01 0.00 0.00 0.00 0.00 0.00 0.00 0.00 0.00 0.00 0.00 0.00 0.00 0.00 0.00 0.00
0.00 0.00 0.00 0.00 0.00 0.01 0.01 0.01 0.01 0.01 0.03 0.02 0.00 0.00 0.00 0.00 0.01 0.01 0.00 0.01 0.02 0.01 0.02 0.02 0.03 0.02 0.01 0.03 0.02 0.02 0.01 0.00 0.00 0.00 0.01 0.04 0.03 0.01 0.00 0.00 0.00 0.00 0.00 0.00 0.00 0.00 0.00 0.00 0.00 0.00 0.00 0.00 0.00 0.00
0.00 0.00 0.00 0.00 0.00 0.01 0.01 0.01 0.01 0.02 0.02 0.01 0.00 0.00 0.00 0.01 0.00 0.00 0.00 0.00 0.00 0.01 0.04 0.03 0.04 0.01 0.02 0.03 0.02 0.01 0.01 0.01 0.01 0.00 0.01 0.01 0.00 0.00 0.00 0.00 0.00 0.00 0.00 0.00 0.00 0.00 0.00 0.00 0.00 0.00 0.00 0.00 0.00 0.00
0.00 0.00 0.00 0.00 0.00 0.00 0.01 0.01 0.02 0.01 0.00 0.00 0.00 0.00 0.01 0.00 0.00 0.00 0.00 0.00 0.01 0.01 0.01 0.03 0.04 0.01 0.02 0.03 0.01 0.02 0.02 0.04 0.04 0.02 0.01 0.02 0.00 0.00 0.00 0.00 0.00 0.00 0.00 0.00 0.00 0.00 0.00 0.00 0.00 0.00 0.00 0.00 0.00 0.00
0.00 0.00 0.00 0.00 0.01 0.01 0.01 0.00 0.00 0.01 0.01 0.00 0.00 0.00 0.00 0.01 0.00 0.01 0.02 0.01 0.04 0.03 0.02 0.01 0.04 0.03 0.01 0.02 0.02 0.01 0.02 0.02 0.03 0.01 0.01 0.01 0.00 0.00 0.00 0.00 0.00 0.00 0.00 0.00 0.00 0.00 0.00 0.00 0.00 0.00 0.00 0.00 0.00 0.00
0.00 0.00 0.00 0.00 0.00 0.01 0.01 0.00 0.00 0.00 0.00 0.00 0.00 0.00 0.00 0.00 0.01 0.03 0.01 0.01 0.02 0.00 0.00 0.00 0.01 0.00 0.01 0.00 0.01 0.01 0.01 0.01 0.00 0.01 0.01 0.00 0.00 0.00 0.00 0.00 0.00 0.00 0.00 0.00 0.00 0.00 0.00 0.00 0.00 0.00 0.00 0.00 0.00 0.00
0.00 0.00 0.00 0.00 0.00 0.00 0.00 0.00 0.00 0.00 0.00 0.00 0.00 0.00 0.00 0.00 0.00 0.00 0.01 0.00 0.00 0.00 0.00 0.00 0.00 0.00 0.00 0.00 0.00 0.00 0.00 0.00 0.00 0.01 0.00 0.00 0.00 0.00 0.00 0.00 0.00 0.00 0.00 0.00 0.00 0.00 0.00 0.00 0.00 0.00 0.00 0.00 0.00 0.00
0.00 0.00 0.00 0.00 0.00 0.00 0.00 0.00 0.00 0.00 0.00 0.00 0.00 0.00 0.00 0.00 0.00 0.00 0.00 0.00 0.00 0.00 0.00 0.00 0.00 0.00 0.00 0.00 0.00 0.00 0.00 0.00 0.01 0.00 0.00 0.00 0.00 0.00 0.00 0.00 0.00 0.00 0.00 0.00 0.00 0.00 0.00 0.00 0.00 0.00 0.00 0.00 0.00 0.00
0.00 0.00 0.00 0.00 0.00 0.00 0.00 0.00 0.00 0.00 0.00 0.00 0.00 0.00 0.00 0.01 0.00 0.00 0.00 0.00 0.00 0.00 0.00 0.01 0.00 0.00 0.00 0.00 0.00 0.00 0.00 0.00 0.00 0.00 0.00 0.00 0.00 0.00 0.00 0.00 0.00 0.00 0.00 0.00 0.00 0.00 0.00 0.00 0.00 0.00 0.00 0.00 0.00 0.00
0.00 0.00 0.00 0.00 0.00 0.00 0.00 0.00 0.00 0.00 0.00 0.00 0.00 0.00 0.00 0.00 0.00 0.00 0.00 0.00 0.00 0.00 0.00 0.00 0.00 0.00 0.00 0.00 0.00 0.00 0.00 0.00 0.00 0.01 0.01 0.00 0.00 0.00 0.00 0.00 0.00 0.00 0.00 0.00 0.00 0.00 0.00 0.00 0.00 0.00 0.00 0.00 0.00 0.00
0.00 0.00 0.00 0.00 0.00 0.00 0.00 0.00 0.00 0.00 0.00 0.01 0.00 0.01 0.00 0.00 0.00 0.00 0.00 0.00 0.00 0.00 0.00 0.00 0.00 0.00 0.00 0.00 0.00 0.00 0.00 0.01 0.00 0.00 0.00 0.00 0.00 0.00 0.00 0.00 0.00 0.00 0.00 0.00 0.00 0.00 0.00 0.00 0.00 0.00 0.00 0.00 0.00 0.00
0.00 0.00 0.00 0.00 0.00 0.00 0.00 0.00 0.00 0.00 0.00 0.01 0.01 0.01 0.01 0.01 0.00 0.00 0.00 0.00 0.00 0.00 0.00 0.00 0.00 0.00 0.00 0.00 0.00 0.00 0.00 0.00 0.00 0.00 0.00 0.00 0.00 0.00 0.00 0.00 0.00 0.00 0.00 0.00 0.00 0.00 0.00 0.00 0.00 0.00 0.00 0.00 0.00 0.00
0.00 0.00 0.00 0.00 0.00 0.00 0.00 0.00 0.00 0.00 0.00 0.00 0.00 0.00 0.00 0.00 0.00 0.00 0.00 0.00 0.00 0.00 0.00 0.00 0.00 0.01 0.01 0.01 0.00 0.00 0.00 0.00 0.00 0.00 0.00 0.00 0.00 0.00 0.00 0.00 0.00 0.00 0.00 0.00 0.00 0.00 0.00 0.00 0.00 0.00 0.00 0.00 0.00 0.00
0.00 0.00 0.00 0.00 0.00 0.00 0.00 0.00 0.00 0.00 0.00 0.00 0.00 0.00 0.00 0.00 0.00 0.00 0.00 0.00 0.00 0.00 0.00 0.00 0.00 0.01 0.01 0.00 0.00 0.00 0.00 0.00 0.00 0.00 0.00 0.00 0.00 0.00 0.00 0.00 0.00 0.00 0.00 0.00 0.00 0.00 0.00 0.00 0.00 0.00 0.00 0.00 0.00 0.00
0.00 0.00 0.00 0.00 0.00 0.00 0.00 0.00 0.00 0.00 0.00 0.00 0.00 0.00 0.00 0.00 0.00 0.00 0.00 0.00 0.00 0.01 0.01 0.01 0.00 0.00 0.00 0.00 0.00 0.00 0.00 0.00 0.00 0.00 0.00 0.00 0.00 0.00 0.00 0.00 0.00 0.00 0.00 0.00 0.00 0.00 0.00 0.00 0.00 0.00 0.00 0.00 0.00 0.00
0.00 0.00 0.00 0.00 0.00 0.00 0.00 0.00 0.00 0.00 0.00 0.00 0.00 0.00 0.00 0.00 0.00 0.00 0.00 0.00 0.00 0.01 0.00 0.00 0.00 0.00 0.00 0.00 0.00 0.00 0.00 0.00 0.00 0.00 0.00 0.00 0.00 0.00 0.00 0.00 0.00 0.00 0.00 0.00 0.00 0.00 0.00 0.00 0.00 0.00 0.00 0.00 0.00 0.00
0.00 0.00 0.00 0.00 0.00 0.00 0.00 0.00 0.00 0.00 0.00 0.00 0.00 0.00 0.00 0.00 0.00 0.00 0.00 0.00 0.01 0.00 0.00 0.00 0.00 0.00 0.00 0.00 0.00 0.00 0.00 0.00 0.00 0.00 0.00 0.00 0.00 0.00 0.00 0.00 0.00 0.00 0.00 0.00 0.00 0.00 0.00 0.00 0.00 0.00 0.00 0.00 0.00 0.00
0.00 0.00 0.00 0.00 0.00 0.00 0.00 0.00 0.00 0.00 0.00 0.00 0.00 0.00 0.00 0.00 0.00 0.00 0.00 0.00 0.00 0.01 0.00 0.00 0.00 0.00 0.00 0.00 0.00 0.00 0.00 0.00 0.00 0.00 0.00 0.00 0.00 0.00 0.00 0.00 0.00 0.00 0.00 0.00 0.00 0.00 0.00 0.00 0.00 0.00 0.00 0.00 0.00 0.00
0.00 0.00 0.00 0.00 0.00 0.00 0.00 0.00 0.00 0.00 0.00 0.00 0.00 0.00 0.00 0.00 0.00 0.00 0.00 0.00 0.00 0.00 0.01 0.01 0.00 0.00 0.00 0.00 0.00 0.00 0.00 0.00 0.00 0.00 0.00 0.00 0.00 0.00 0.00 0.00 0.00 0.00 0.00 0.00 0.00 0.00 0.00 0.00 0.00 0.00 0.00 0.00 0.00 0.00
0.00 0.00 0.00 0.00 0.00 0.00 0.00 0.00 0.00 0.00 0.00 0.00 0.00 0.00 0.00 0.00 0.00 0.00 0.01 0.00 0.00 0.00 0.00 0.00 0.00 0.00 0.00 0.00 0.00 0.00 0.00 0.00 0.00 0.00 0.00 0.00 0.00 0.00 0.00 0.00 0.00 0.00 0.00 0.00 0.00 0.00 0.00 0.00 0.00 0.00 0.00 0.00 0.00 0.00
0.00 0.00 0.00 0.00 0.00 0.00 0.00 0.00 0.00 0.00 0.00 0.00 0.00 0.00 0.00 0.00 0.00 0.00 0.00 0.00 0.00 0.00 0.00 0.00 0.00 0.00 0.00 0.00 0.00 0.00 0.00 0.00 0.00 0.00 0.00 0.00 0.00 0.00 0.00 0.00 0.00 0.00 0.00 0.00 0.00 0.00 0.00 0.00 0.00 0.00 0.00 0.00 0.00 0.00
0.00 0.00 0.00 0.00 0.00 0.00 0.00 0.00 0.00 0.00 0.00 0.00 0.00 0.00 0.00 0.00 0.00 0.00 0.00 0.00 0.00 0.00 0.00 0.00 0.00 0.00 0.00 0.00 0.00 0.00 0.00 0.00 0.00 0.00 0.00 0.00 0.00 0.00 0.00 0.00 0.00 0.00 0.00 0.00 0.00 0.00 0.00 0.00 0.00 0.00 0.00 0.00 0.00 0.00
0.00 0.00 0.00 0.00 0.00 0.00 0.00 0.00 0.00 0.00 0.00 0.00 0.00 0.00 0.00 0.00 0.01 0.01 0.00 0.00 0.00 0.00 0.00 0.00 0.00 0.00 0.00 0.00 0.00 0.00 0.00 0.00 0.00 0.00 0.00 0.00 0.00 0.00 0.00 0.00 0.00 0.00 0.00 0.00 0.00 0.00 0.00 0.00 0.00 0.00 0.00 0.00 0.00 0.00
0.00 0.00 0.00 0.00 0.00 0.00 0.00 0.00 0.00 0.00 0.00 0.00 0.00 0.00 0.00 0.00 0.00 0.00 0.00 0.00 0.00 0.00 0.00 0.00 0.00 0.00 0.00 0.00 0.00 0.00 0.00 0.00 0.00 0.00 0.00 0.00 0.00 0.00 0.00 0.00 0.00 0.00 0.00 0.00 0.00 0.00 0.00 0.00 0.00 0.00 0.00 0.00 0.00 0.00
0.00 0.00 0.00 0.00 0.00 0.00 0.00 0.00 0.00 0.00 0.00 0.00 0.00 0.00 0.00 0.00 0.00 0.00 0.00 0.00 0.00 0.00 0.00 0.00 0.00 0.00 0.00 0.00 0.00 0.00 0.00 0.00 0.00 0.00 0.00 0.00 0.00 0.00 0.00 0.00 0.00 0.00 0.00 0.00 0.00 0.00 0.00 0.00 0.00 0.00 0.00 0.00 0.00 0.00
0.00 0.00 0.00 0.00 0.00 0.00 0.00 0.00 0.00 0.00 0.00 0.00 0.00 0.00 0.00 0.00 0.00 0.00 0.00 0.00 0.00 0.00 0.00 0.00 0.00 0.00 0.00 0.00 0.00 0.00 0.00 0.00 0.00 0.00 0.00 0.00 0.00 0.00 0.00 0.00 0.00 0.00 0.00 0.00 0.00 0.00 0.00 0.00 0.00 0.00 0.00 0.00 0.00 0.00
MSLP
1009.09 1008.80 1008.40 1008.04 1007.81 1007.58 1007.39 1007.25 1007.18 1007.20 1007.35 1007.57 1007.88 1008.31 1008.91 1009.56 1010.43 1011.36 1010.98 1011.46 1012.37 1011.93 1010.85 1010.43 1009.77 1009.71 1009.20 1008.84 1008.90 1008.71 1008.69 1009.24 1009.55 1008.99 1008.04 1006.50 1004.89 1003.72 1002.49 1001.88 1002.08 1002.93 1003.79 1004.30 1004.59 1003.71 1002.78 1001.84 1002.23 1002.11 1003.36 1003.83 1003.69 1003.67
1007.95 1007.52 1007.15 1006.80 1006.47 1006.19 1005.99 1005.90 1005.88 1005.96 1006.16 1006.46 1006.87 1007.29 1007.88 1008.62 1009.39 1010.53 1010.63 1010.94 1011.79 1012.12 1010.64 1010.35 1009.73 1009.35 1009.06 1008.96 1009.55 1009.43 1009.17 1009.08 1008.73 1008.45 1007.57 1006.91 1004.96 1004.04 1002.85 1002.01 1001.80 1002.27 1002.33 1002.55 1002.91 1002.42 1002.36 1002.56 1002.97 1003.49 1003.97 1004.54 1004.96 1005.10
1006.67 1006.24 1005.82 1005.36 1004.90 1004.60 1004.39 1004.32 1004.35 1004.55 1004.91 1005.33 1005.81 1006.27 1006.81 1007.51 1008.34 1009.25 1009.93 1010.21 1011.45 1012.04 1011.23 1010.24 1008.89 1008.55 1008.39 1007.98 1008.51 1009.49 1008.68 1008.65 1009.26 1008.55 1008.06 1007.19 1005.68 1004.17 1003.16 1002.42 1002.45 1002.04 1002.15 1002.73 1002.56 1002.68 1003.36 1003.79 1004.11 1004.67 1005.24 1005.83 1006.33 1006.67
1005.44 1004.92 1004.30 1003.73 1003.37 1003.20 1003.04 1002.92 1003.07 1003.40 1003.82 1004.26 1004.79 1005.33 1005.99 1006.71 1007.48 1008.58 1009.45 1010.24 1010.91 1011.55 1010.91 1008.34 1007.75 1007.32 1007.34 1007.55 1007.50 1008.29 1008.49 1008.60 1008.77 1008.45 1008.29 1007.08 1005.99 1004.83 1004.01 1003.31 1003.08 1002.67 1003.11 1002.47 1004.05 1004.18 1005.36 1005.35 1005.74 1006.33 1006.87 1007.28 1007.66 1008.02
1004.14 1003.56 1002.95 1002.39 1002.04 1001.86 1001.81 1001.87 1002.04 1002.32 1002.75 1003.28 1003.87 1004.49 1005.24 1006.06 1006.94 1007.98 1009.10 1009.81 1010.01 1009.80 1008.77 1008.41 1007.21 1006.04 1006.10 1006.83 1007.28 1007.71 1008.17 1008.49 1008.98 1008.74 1008.03 1007.01 1006.43 1005.89 1004.94 1004.24 1005.23 1004.54 1004.78 1004.17 1005.61 1006.02 1006.28 1007.11 1007.75 1007.87 1008.20 1008.58 1008.99 1009.37
1002.91 1002.30 1001.68 1001.16 1000.80 1000.59 1000.57 1000.72 1000.98 1001.29 1001.74 1002.34 1002.97 1003.66 1004.51 1005.55 1006.75 1007.78 1008.90 1009.54 1009.59 1009.76 1010.09 1008.72 1007.61 1005.43 1005.68 1006.20 1006.99 1007.69 1008.18 1008.89 1009.15 1008.88 1008.16 1007.01 1006.15 1006.58 1006.26 1006.57 1008.35 1007.13 1007.03 1007.22 1007.63 1007.46 1007.77 1008.42 1009.28 1009.77 1009.89 1010.28 1010.47 1010.96
1001.84 1001.08 1000.44 999.82 999.33 999.05 998.97 999.34 999.90 1000.47 1000.95 1001.61 1002.44 1003.25 1004.07 1005.34 1006.36 1007.08 1007.46 1007.51 1008.81 1010.42 1010.45 1008.87 1007.10 1005.75 1005.72 1006.49 1007.13 1007.65 1008.08 1008.89 1009.06 1009.07 1008.48 1007.47 1006.73 1006.62 1007.41 1008.54 1009.97 1009.80 1008.87 1008.99 1008.92 1008.42 1008.83 1010.07 1010.64 1011.16 1011.28 1011.42 1012.03 1012.61
1000.88 1000.17 999.27 998.31 997.56 997.25 997.40 998.07 998.99 999.80 1000.52 1001.37 1002.42 1003.50 1004.63 1005.73 1006.67 1007.03 1006.66 1006.88 1008.34 1009.75 1009.92 1008.75 1006.92 1006.20 1005.76 1006.30 1006.88 1007.58 1008.28 1008.82 1008.87 1008.68 1008.14 1007.41 1006.87 1007.42 1009.67 1011.55 1011.78 1011.67 1010.76 1010.61 1010.44 1010.39 1010.99 1011.38 1011.71 1012.08 1012.24 1012.44 1012.97 1013.79
1000.31 999.49 998.33 997.01 995.70 995.21 996.18 997.20 998.43 999.41 1000.30 1001.59 1002.88 1004.24 1005.36 1006.09 1006.50 1006.58 1006.88 1007.62 1008.22 1009.06 1008.54 1007.87 1006.85 1006.29 1006.12 1006.31 1007.23 1007.78 1008.48 1008.71 1008.87 1008.68 1008.18 1007.75 1008.54 1010.62 1012.51 1012.85 1013.19 1013.24 1012.93 1012.55 1011.97 1012.19 1012.26 1012.47 1012.76 1013.25 1013.61 1013.98 1014.40 1015.17
1000.06 999.25 998.08 996.87 995.78 995.49 996.24 997.29 998.31 999.49 1000.77 1002.11 1003.72 1005.19 1005.94 1006.03 1006.25 1006.87 1007.90 1008.31 1008.49 1008.28 1007.55 1006.74 1006.31 1006.29 1006.36 1006.60 1007.34 1008.08 1008.24 1008.14 1008.22 1008.31 1008.25 1009.05 1011.48 1012.98 1013.51 1014.04 1014.44 1014.54 1014.33 1014.11 1013.72 1013.82 1014.12 1014.22 1014.53 1014.89 1015.41 1015.90 1016.26 1016.83
1000.12 999.47 998.46 997.63 997.07 997.10 997.58 998.37 999.36 1000.66 1001.58 1002.91 1004.14 1004.60 1005.21 1005.81 1006.16 1006.83 1007.38 1007.53 1007.68 1007.56 1006.41 1005.93 1006.03 1005.96 1006.77 1006.67 1007.18 1007.33 1007.63 1007.45 1007.52 1008.06 1008.59 1010.05 1012.66 1014.32 1014.92 1015.35 1015.76 1015.91 1015.79 1015.81 1015.81 1016.04 1016.19 1016.24 1016.32 1016.56 1017.12 1017.69 1018.15 1018.56
1000.48 1000.27 999.59 998.96 998.54 998.41 999.09 999.88 1000.71 1001.22 1001.92 1002.93 1003.55 1004.92 1005.79 1006.09 1006.24 1006.54 1006.76 1006.95 1006.48 1005.91 1005.67 1005.68 1005.91 1006.06 1006.78 1006.92 1007.13 1007.42 1007.41 1007.63 1007.81 1008.38 1009.14 1011.64 1014.56 1015.51 1016.12 1016.76 1017.17 1017.36 1017.38 1017.55 1017.67 1017.75 1017.88 1017.99 1018.13 1018.44 1018.87 1019.38 1019.80 1020.16
1000.91 1001.01 1000.84 1000.51 1000.42 1000.49 1000.64 1000.82 1001.22 1002.15 1002.49 1003.17 1003.72 1005.33 1005.62 1006.44 1006.27 1006.04 1006.20 1006.18 1006.29 1006.27 1006.38 1006.13 1006.30 1006.56 1007.06 1007.10 1007.34 1007.49 1007.88 1008.32 1008.75 1009.51 1011.41 1014.16 1015.88 1016.77 1017.40 1017.78 1018.29 1018.62 1018.74 1018.93 1019.19 1019.43 1019.64 1019.85 1020.05 1020.29 1020.60 1020.94 1021.17 1021.43
1001.55 1001.58 1001.74 1001.85 1001.91 1001.80 1002.07 1002.48 1002.86 1003.01 1003.16 1003.69 1004.55 1005.83 1006.23 1006.60 1006.84 1007.06 1006.92 1006.85 1007.30 1007.07 1006.80 1006.62 1006.85 1007.00 1007.48 1007.72 1008.18 1008.31 1009.23 1009.29 1009.80 1011.05 1013.54 1015.81 1017.19 1018.08 1018.67 1019.03 1019.40 1019.86 1020.18 1020.44 1020.76 1021.00 1021.15 1021.30 1021.50 1021.74 1021.94 1022.19 1022.39 1022.59
1002.07 1002.08 1002.29 1002.78 1002.82 1002.91 1002.90 1003.14 1003.08 1003.00 1003.66 1004.69 1005.38 1006.75 1007.63 1008.27 1008.29 1008.22 1008.05 1007.82 1008.05 1007.88 1007.42 1007.13 1007.18 1007.53 1008.09 1008.58 1008.94 1009.56 1010.02 1010.53 1011.85 1013.71 1015.62 1017.32 1018.39 1019.02 1019.55 1019.99 1020.32 1020.64 1020.93 1021.15 1021.49 1021.71 1021.95 1022.23 1022.46 1022.73 1023.03 1023.24 1023.43 1023.59
1002.46 1002.48 1003.40 1003.28 1003.14 1003.35 1003.63 1003.63 1003.78 1004.07 1005.62 1006.94 1007.90 1008.20 1008.45 1008.45 1008.76 1008.71 1008.62 1008.70 1008.81 1008.40 1007.93 1007.37 1007.74 1008.19 1008.96 1009.36 1009.93 1010.77 1011.22 1012.60 1014.38 1016.06 1017.55 1018.58 1019.37 1019.95 1020.38 1020.69 1020.95 1021.25 1021.51 1021.81 1022.11 1022.39 1022.68 1022.92 1023.15 1023.49 1023.76 1023.89 1024.00 1024.15
1002.28 1002.79 1003.80 1003.70 1003.67 1003.69 1003.61 1003.94 1005.12 1006.29 1007.38 1008.34 1009.31 1009.59 1009.37 1009.49 1009.80 1009.89 1009.72 1009.53 1009.28 1008.71 1008.18 1008.01 1008.39 1009.51 1010.13 1010.75 1012.13 1013.31 1014.05 1015.45 1016.53 1017.64 1018.63 1019.50 1020.15 1020.70 1021.09 1021.32 1021.51 1021.76 1022.03 1022.29 1022.51 1022.72 1022.95 1023.16 1023.30 1023.42 1023.65 1024.00 1024.21 1024.57
1002.29 1003.45 1003.69 1003.76 1003.70 1003.83 1004.44 1004.97 1006.24 1007.60 1008.87 1009.67 1009.94 1010.53 1010.69 1010.68 1010.63 1010.61 1010.34 1009.76 1009.15 1008.61 1008.93 1009.40 1009.71 1010.88 1012.04 1012.71 1014.21 1015.68 1016.55 1017.41 1018.22 1019.03 1019.76 1020.35 1020.75 1021.12 1021.41 1021.68 1021.97 1022.21 1022.44 1022.62 1022.71 1022.84 1022.98 1023.04 1023.05 1023.28 1023.63 1023.98 1024.15 1024.33
1002.49 1003.06 1003.76 1003.86 1003.74 1004.00 1005.16 1006.31 1006.88 1008.53 1009.99 1010.48 1010.90 1011.06 1011.29 1011.59 1011.75 1011.55 1011.04 1010.37 1010.01 1009.65 1010.03 1011.03 1012.35 1013.52 1014.57 1015.36 1016.10 1017.04 1017.84 1018.53 1019.27 1020.02 1020.65 1021.18 1021.52 1021.81 1022.05 1022.24 1022.41 1022.58 1022.72 1022.78 1022.83 1022.97 1023.22 1023.34 1023.32 1023.27 1023.42 1023.54 1023.76 1024.25
1003.11 1003.40 1003.78 1003.99 1004.06 1004.38 1005.74 1006.80 1007.12 1008.31 1009.72 1010.92 1011.18 1011.46 1011.80 1012.08 1012.24 1012.14 1011.75 1011.29 1011.10 1011.44 1012.80 1014.07 1015.24 1016.11 1016.44 1017.08 1017.54 1018.04 1018.64 1019.20 1019.68 1020.28 1021.02 1021.60 1021.91 1022.14 1022.29 1022.39 1022.62 1022.80 1022.94 1023.12 1023.23 1023.26 1023.37 1023.68 1024.08 1024.41 1024.61 1024.72 1024.46 1024.91
1003.54 1004.02 1004.03 1004.00 1004.11 1004.59 1005.76 1006.85 1007.87 1008.93 1009.92 1010.69 1011.29 1011.51 1012.16 1012.44 1012.51 1012.55 1012.58 1012.78 1012.96 1014.43 1015.79 1016.98 1017.50 1017.99 1018.25 1018.51 1018.79 1019.01 1019.27 1019.33 1019.46 1019.95 1020.89 1021.68 1022.15 1022.40 1022.66 1022.81 1022.87 1022.87 1022.98 1023.19 1023.34 1023.91 1024.16 1024.41 1024.74 1025.04 1025.21 1025.45 1025.69 1025.91
1003.53 1003.86 1003.73 1003.97 1004.77 1005.77 1006.87 1007.38 1007.99 1008.88 1009.87 1010.69 1011.05 1011.42 1012.02 1012.65 1013.12 1013.66 1014.08 1014.72 1016.46 1017.38 1017.80 1018.36 1018.80 1019.09 1019.46 1019.74 1019.94 1020.10 1020.30 1020.43 1020.83 1021.24 1021.74 1022.13 1022.39 1022.70 1022.98 1023.16 1023.19 1023.61 1023.88 1024.13 1024.29 1024.61 1024.98 1025.45 1025.94 1025.71 1025.82 1026.04 1026.17 1026.60
1003.92 1003.74 1004.06 1004.75 1005.85 1006.86 1008.35 1008.20 1008.32 1008.90 1009.71 1010.64 1010.99 1011.55 1012.31 1013.02 1013.70 1013.89 1015.40 1017.07 1018.38 1019.03 1019.16 1019.45 1019.90 1020.34 1020.65 1020.87 1020.89 1020.91 1020.93 1021.13 1021.58 1022.04 1022.39 1022.73 1023.13 1023.43 1023.64 1023.92 1024.12 1024.31 1024.46 1024.88 1025.15 1025.29 1025.88 1026.32 1026.49 1026.40 1026.42 1026.37 1026.35 1026.66
1004.75 1005.43 1005.75 1005.96 1006.62 1007.74 1008.29 1008.34 1008.52 1009.13 1009.90 1010.41 1011.11 1012.02 1012.67 1013.29 1013.77 1014.74 1016.41 1018.10 1019.30 1019.72 1020.04 1020.34 1020.50 1020.78 1021.08 1021.23 1021.47 1021.79 1021.94 1022.12 1022.43 1022.81 1022.89 1023.06 1023.47 1023.99 1024.32 1024.64 1025.02 1025.40 1025.57 1025.67 1025.87 1026.12 1026.40 1026.66 1026.91 1026.70 1026.78 1026.71 1026.66 1026.84
1005.61 1007.86 1007.41 1007.33 1007.41 1007.81 1008.30 1008.70 1009.03 1009.40 1010.14 1010.98 1011.68 1012.59 1013.30 1013.53 1014.00 1015.47 1017.06 1018.86 1019.55 1019.94 1020.22 1020.34 1020.43 1020.61 1021.14 1021.78 1022.37 1022.72 1022.62 1022.45 1022.77 1023.43 1023.86 1023.92 1024.15 1024.35 1024.72 1025.19 1025.71 1026.13 1026.33 1026.18 1026.21 1026.41 1026.80 1027.13 1027.03 1027.02 1027.10 1026.99 1027.18 1027.19
1007.28 1008.86 1008.58 1008.12 1008.17 1008.02 1008.46 1008.90 1009.24 1009.77 1010.60 1011.51 1012.46 1013.23 1013.37 1013.75 1014.83 1016.47 1017.73 1018.85 1019.65 1020.21 1020.44 1020.53 1020.67 1020.92 1021.31 1021.81 1022.43 1023.05 1023.57 1023.59 1023.49 1024.19 1024.82 1024.93 1025.04 1025.05 1025.20 1025.51 1025.83 1026.72 1027.02 1027.15 1026.98 1026.82 1026.73 1026.97 1027.18 1027.32 1027.36 1027.19 1027.54 1027.52
1008.54 1009.53 1009.92 1009.90 1009.28 1009.12 1009.55 1010.00 1010.26 1010.68 1011.34 1012.11 1012.88 1013.49 1013.98 1015.02 1016.59 1018.33 1018.85 1019.47 1020.07 1020.68 1020.93 1021.09 1021.05 1021.33 1022.15 1023.07 1023.75 1024.33 1024.74 1024.93 1024.84 1025.26 1025.74 1026.03 1026.29 1026.45 1026.56 1026.82 1027.23 1027.82 1027.64 1027.79 1027.69 1027.61 1027.50 1027.44 1027.39 1027.39 1027.36 1027.27 1027.20 1027.21
1010.39 1010.81 1011.02 1011.32 1011.16 1011.17 1011.26 1011.75 1012.13 1012.62 1013.24 1013.53 1013.71 1014.78 1015.57 1016.64 1018.16 1019.17 1019.92 1020.60 1021.12 1021.61 1021.99 1022.32 1022.41 1022.77 1023.40 1024.09 1024.64 1025.14 1025.59 1025.90 1026.05 1026.06 1026.33 1026.61 1026.92 1027.30 1027.61 1028.08 1028.46 1028.43 1028.43 1028.48 1028.61 1028.33 1028.11 1028.02 1027.93 1027.78 1027.61 1027.50 1027.46 1027.47
1011.32 1012.08 1012.68 1013.10 1013.05 1013.75 1014.29 1014.26 1014.59 1015.33 1015.71 1014.91 1015.33 1016.78 1018.26 1019.29 1019.98 1020.46 1021.09 1021.63 1022.13 1022.58 1023.03 1023.52 1024.08 1024.46 1024.76 1024.95 1025.23 1025.47 1025.69 1025.90 1025.92 1026.21 1026.34 1026.52 1026.88 1027.67 1027.95 1028.22 1028.40 1028.39 1028.39 1028.63 1028.62 1028.53 1028.36 1028.40 1028.23 1028.17 1028.13 1028.03 1027.83 1027.70
1012.26 1012.59 1013.37 1014.37 1014.97 1016.01 1016.70 1016.42 1016.55 1016.93 1016.96 1017.14 1017.99 1019.01 1019.81 1020.80 1021.61 1021.88 1022.05 1022.26 1022.59 1023.09 1023.56 1023.90 1024.31 1024.54 1024.96 1025.39 1026.03 1026.59 1027.05 1027.22 1027.35 1027.27 1027.11 1027.33 1027.75 1028.20 1028.31 1028.45 1028.62 1028.68 1028.75 1028.71 1028.60 1028.39 1028.20 1028.15 1028.01 1027.77 1027.95 1027.88 1027.57 1027.47
1012.47 1012.85 1013.88 1015.21 1016.56 1017.70 1017.70 1017.63 1017.51 1017.67 1017.91 1018.34 1018.94 1019.78 1020.54 1021.72 1022.80 1023.19 1023.19 1023.37 1023.69 1024.05 1024.28 1024.59 1024.98 1025.31 1025.59 1025.81 1026.25 1026.74 1027.45 1028.32 1028.59 1028.60 1028.42 1028.49 1028.60 1028.68 1029.05 1029.23 1029.25 1029.26 1028.97 1028.94 1028.89 1028.68 1028.61 1028.57 1028.22 1028.00 1027.88 1027.90 1027.91 1027.90
1012.84 1013.40 1014.30 1015.80 1017.34 1017.91 1017.99 1017.66 1017.88 1018.46 1018.95 1019.21 1019.72 1020.38 1020.91 1021.39 1022.64 1023.95 1024.71 1024.40 1024.19 1024.41 1024.83 1025.02 1025.56 1026.29 1026.79 1027.23 1027.57 1027.88 1028.16 1028.66 1028.97 1029.16 1029.25 1029.26 1029.29 1029.43 1029.36 1029.37 1029.32 1029.23 1029.26 1029.31 1029.05 1028.85 1028.74 1028.72 1028.58 1028.43 1028.29 1028.15 1028.12 1028.17
1013.62 1014.13 1014.62 1015.69 1017.00 1017.29 1017.52 1017.12 1017.63 1018.56 1018.96 1019.56 1020.28 1020.57 1021.21 1021.61 1023.08 1024.56 1025.31 1025.36 1024.96 1024.93 1025.60 1026.22 1026.82 1027.29 1027.61 1027.82 1028.11 1028.46 1028.99 1029.70 1030.16 1030.23 1030.44 1030.55 1030.64 1030.50 1030.18 1029.46 1029.53 1029.41 1029.52 1029.47 1029.28 1029.04 1028.86 1028.77 1028.70 1028.66 1028.59 1028.48 1028.38 1028.32
Thickness
5328 5329 5332 5335 5338 5341 5343 5344 5344 5344 5343 5341 5340 5338 5335 5334 5331 5329 5339 5336 5332 5339 5355 5365 5373 5373 5387 5404 5406 5418 5416 5420 5414 5418 5440 5463 5477 5489 5503 5512 5506 5500 5496 5496 5501 5511 5522 5550 5546 5545 5536 5536 5544 5549
5330 5332 5335 5340 5344 5348 5351 5352 5353 5353 5351 5349 5347 5345 5342 5340 5337 5333 5337 5338 5335 5335 5356 5360 5369 5377 5386 5393 5393 5397 5411 5414 5431 5436 5453 5448 5475 5480 5498 5503 5516 5505 5514 5514 5518 5525 5535 5535 5533 5533 5529 5525 5525 5528
5333 5337 5342 5347 5352 5356 5359 5361 5362 5362 5360 5358 5355 5352 5350 5347 5344 5342 5342 5343 5336 5334 5344 5357 5375 5383 5390 5402 5402 5398 5417 5422 5415 5431 5436 5445 5461 5484 5493 5503 5502 5511 5516 5512 5524 5524 5521 5518 5518 5517 5514 5511 5509 5508
5339 5344 5349 5354 5358 5360 5362 5365 5367 5367 5366 5365 5362 5359 5356 5353 5350 5346 5343 5342 5340 5336 5344 5375 5385 5392 5397 5402 5409 5407 5413 5419 5422 5429 5427 5441 5458 5479 5483 5498 5501 5509 5509 5523 5505 5503 5491 5498 5497 5496 5493 5493 5493 5493
5345 5349 5353 5358 5361 5363 5365 5365 5366 5368 5369 5368 5367 5365 5361 5358 5354 5350 5346 5345 5347 5357 5370 5374 5390 5405 5409 5408 5411 5414 5416 5419 5414 5420 5433 5444 5454 5465 5481 5493 5473 5491 5490 5501 5481 5488 5480 5478 5476 5480 5477 5476 5475 5472
5349 5353 5357 5360 5362 5363 5364 5364 5366 5368 5369 5369 5370 5369 5365 5360 5355 5350 5341 5344 5351 5354 5352 5369 5383 5412 5414 5415 5414 5414 5415 5409 5411 5417 5432 5450 5463 5455 5465 5470 5439 5468 5469 5465 5462 5471 5471 5467 5458 5455 5456 5455 5458 5454
5353 5357 5359 5360 5362 5363 5364 5363 5363 5364 5367 5368 5369 5369 5367 5361 5358 5357 5363 5366 5358 5348 5349 5370 5390 5409 5414 5413 5412 5414 5414 5408 5411 5414 5423 5442 5455 5462 5458 5448 5422 5430 5453 5447 5450 5460 5459 5443 5440 5437 5439 5442 5437 5433
5355 5356 5359 5362 5364 5365 5365 5363 5361 5360 5363 5364 5364 5362 5360 5357 5354 5357 5366 5368 5360 5354 5356 5372 5400 5403 5418 5414 5413 5413 5407 5407 5413 5419 5433 5445 5458 5457 5421 5404 5409 5412 5429 5428 5433 5439 5433 5431 5429 5425 5426 5427 5424 5415
5355 5357 5359 5363 5365 5364 5360 5361 5358 5359 5360 5359 5356 5353 5351 5352 5356 5361 5364 5363 5363 5363 5373 5383 5396 5407 5415 5418 5408 5411 5405 5408 5411 5416 5428 5444 5429 5402 5387 5393 5393 5395 5401 5408 5419 5416 5419 5418 5417 5413 5411 5408 5406 5398
5354 5356 5359 5361 5362 5359 5358 5358 5358 5357 5355 5352 5349 5343 5344 5353 5358 5358 5354 5351 5357 5365 5383 5394 5403 5405 5413 5416 5409 5404 5410 5418 5421 5424 5432 5419 5387 5387 5389 5387 5384 5384 5389 5392 5396 5395 5394 5395 5393 5390 5384 5381 5379 5373
5353 5354 5359 5360 5359 5358 5357 5357 5353 5351 5351 5348 5345 5351 5353 5354 5358 5358 5360 5368 5369 5377 5398 5406 5403 5407 5406 5413 5409 5421 5416 5429 5435 5430 5428 5418 5389 5372 5372 5371 5370 5369 5372 5372 5372 5369 5368 5369 5369 5368 5361 5356 5351 5347
5353 5352 5354 5356 5357 5358 5355 5352 5351 5354 5356 5355 5358 5352 5350 5354 5361 5367 5371 5374 5388 5406 5404 5407 5410 5411 5404 5405 5410 5414 5422 5424 5429 5425 5429 5399 5363 5362 5359 5353 5351 5350 5350 5348 5348 5347 5346 5345 5344 5341 5336 5331 5326 5322
5354 5351 5350 5352 5351 5351 5352 5357 5356 5353 5357 5359 5360 5351 5361 5354 5370 5380 5382 5391 5390 5388 5389 5398 5401 5404 5403 5409 5410 5416 5413 5418 5414 5415 5396 5366 5350 5346 5342 5340 5334 5332 5331 5329 5327 5324 5323 5320 5318 5316 5312 5308 5305 5301
5352 5352 5351 5349 5349 5352 5353 5352 5352 5354 5359 5360 5361 5350 5360 5364 5364 5364 5371 5377 5372 5381 5388 5394 5394 5401 5396 5399 5398 5406 5394 5404 5412 5412 5377 5344 5332 5327 5324 5322 5319 5314 5311 5309 5306 5304 5301 5300 5297 5294 5291 5288 5284 5280
5354 5353 5351 5348 5349 5351 5353 5354 5357 5362 5362 5357 5361 5350 5344 5339 5344 5349 5354 5365 5363 5367 5378 5392 5397 5399 5392 5391 5396 5392 5394 5402 5387 5369 5345 5327 5321 5318 5314 5310 5307 5303 5300 5297 5294 5290 5287 5284 5280 5276 5271 5267 5263 5258
5356 5357 5349 5351 5354 5354 5354 5357 5359 5360 5350 5339 5335 5343 5344 5351 5348 5350 5355 5357 5356 5364 5373 5394 5388 5390 5383 5390 5392 5385 5400 5388 5356 5334 5322 5316 5310 5306 5303 5300 5297 5293 5290 5285 5281 5276 5271 5267 5262 5256 5251 5247 5243 5240
5364 5363 5354 5355 5357 5357 5360 5359 5351 5343 5338 5333 5326 5328 5337 5341 5339 5341 5345 5349 5354 5366 5381 5388 5387 5374 5383 5379 5366 5353 5355 5338 5329 5321 5314 5307 5301 5295 5291 5288 5284 5280 5275 5271 5267 5263 5258 5254 5250 5247 5243 5236 5232 5225
5369 5359 5358 5358 5360 5361 5356 5353 5345 5336 5324 5324 5325 5320 5321 5327 5334 5337 5341 5351 5362 5377 5378 5371 5384 5369 5361 5371 5347 5330 5323 5317 5313 5306 5300 5295 5291 5286 5283 5278 5273 5268 5264 5260 5257 5253 5249 5245 5242 5236 5229 5223 5218 5214
5369 5365 5360 5361 5364 5364 5354 5346 5346 5326 5319 5319 5320 5324 5325 5325 5327 5332 5342 5355 5362 5370 5373 5365 5352 5343 5336 5331 5324 5316 5311 5306 5299 5292 5287 5282 5278 5274 5270 5266 5262 5257 5253 5250 5246 5241 5235 5230 5227 5223 5218 5212 5207 5198
5364 5364 5362 5363 5364 5364 5352 5347 5350 5341 5331 5323 5326 5327 5328 5329 5331 5335 5343 5352 5357 5355 5341 5334 5328 5323 5322 5317 5314 5310 5305 5300 5296 5288 5281 5275 5271 5266 5262 5259 5253 5248 5243 5237 5231 5226 5221 5212 5201 5192 5185 5180 5179 5172
5363 5361 5363 5366 5367 5367 5360 5353 5345 5340 5335 5332 5332 5335 5330 5332 5333 5337 5339 5342 5340 5328 5317 5310 5308 5307 5307 5306 5304 5302 5299 5299 5298 5292 5279 5269 5263 5259 5252 5247 5242 5237 5232 5224 5217 5203 5195 5187 5179 5170 5163 5156 5150 5145
5365 5363 5369 5369 5364 5359 5352 5354 5350 5347 5341 5338 5340 5342 5338 5333 5331 5328 5331 5324 5310 5307 5305 5302 5300 5299 5296 5293 5291 5289 5286 5284 5278 5272 5265 5259 5253 5247 5239 5233 5228 5217 5208 5198 5190 5180 5171 5161 5150 5149 5143 5137 5132 5124
5362 5368 5368 5365 5355 5351 5339 5349 5350 5351 5345 5340 5345 5342 5338 5332 5329 5336 5317 5305 5297 5296 5297 5295 5290 5287 5283 5282 5281 5280 5278 5274 5267 5259 5252 5245 5237 5230 5222 5214 5206 5197 5189 5176 5167 5160 5147 5134 5132 5130 5126 5122 5119 5112
5358 5352 5353 5357 5356 5344 5347 5350 5356 5353 5350 5350 5347 5337 5337 5334 5337 5328 5312 5301 5292 5291 5289 5286 5286 5283 5280 5278 5273 5268 5264 5259 5252 5244 5240 5235 5225 5214 5206 5195 5183 5171 5162 5154 5145 5137 5130 5124 5115 5117 5112 5109 5106 5101
5361 5334 5348 5351 5358 5356 5353 5353 5354 5357 5350 5347 5344 5339 5333 5339 5340 5328 5312 5294 5291 5290 5288 5288 5286 5284 5276 5267 5260 5254 5252 5250 5243 5231 5223 5218 5210 5201 5189 5176 5163 5151 5141 5135 5130 5124 5116 5110 5108 5105 5101 5099 5093 5090
5342 5329 5348 5357 5359 5365 5364 5358 5359 5359 5353 5344 5337 5336 5342 5345 5338 5321 5309 5298 5291 5287 5284 5283 5281 5277 5273 5266 5256 5247 5237 5232 5229 5217 5206 5199 5190 5182 5173 5162 5153 5134 5124 5117 5114 5111 5109 5103 5099 5095 5092 5090 5080 5080
5344 5336 5334 5339 5353 5359 5358 5359 5361 5358 5352 5344 5342 5343 5345 5334 5318 5299 5298 5294 5288 5281 5278 5275 5273 5269 5258 5246 5237 5227 5219 5212 5208 5199 5188 5177 5166 5156 5147 5138 5129 5117 5112 5106 5102 5098 5095 5092 5090 5088 5085 5084 5082 5079
5325 5326 5327 5329 5333 5340 5343 5344 5344 5342 5337 5338 5343 5328 5330 5325 5307 5295 5286 5279 5274 5269 5263 5258 5256 5250 5241 5231 5221 5212 5203 5196 5188 5182 5171 5160 5150 5138 5127 5118 5110 5105 5099 5093 5089 5086 5083 5080 5078 5077 5076 5075 5073 5071
5323 5319 5313 5305 5320 5313 5312 5321 5320 5311 5310 5329 5329 5312 5294 5287 5283 5278 5273 5267 5262 5256 5249 5242 5234 5228 5222 5216 5209 5202 5195 5188 5182 5171 5164 5157 5143 5125 5117 5110 5104 5098 5093 5088 5082 5078 5075 5071 5069 5067 5065 5063 5063 5062
5316 5323 5313 5305 5304 5297 5293 5301 5300 5299 5301 5300 5294 5286 5281 5274 5267 5265 5263 5260 5255 5248 5241 5235 5228 5223 5214 5206 5195 5185 5175 5167 5158 5152 5147 5137 5125 5114 5108 5102 5096 5090 5085 5081 5077 5074 5071 5068 5065 5064 5060 5059 5059 5057
5323 5323 5314 5305 5294 5286 5290 5293 5296 5295 5295 5290 5287 5278 5270 5261 5253 5250 5249 5246 5240 5234 5229 5223 5216 5209 5202 5197 5189 5179 5165 5149 5138 5130 5125 5118 5111 5104 5096 5090 5086 5082 5079 5075 5071 5068 5064 5060 5060 5059 5057 5054 5050 5047
5320 5314 5307 5293 5286 5287 5286 5295 5292 5286 5283 5282 5278 5273 5270 5269 5257 5241 5231 5232 5231 5226 5218 5214 5204 5192 5183 5174 5165 5157 5148 5137 5127 5118 5111 5106 5100 5093 5089 5084 5080 5077 5072 5068 5066 5063 5060 5056 5053 5051 5049 5048 5045 5041
5311 5308 5304 5296 5286 5291 5289 5299 5295 5285 5285 5279 5270 5269 5263 5264 5249 5229 5220 5217 5218 5214 5205 5195 5185 5176 5168 5161 5153 5143 5132 5121 5111 5104 5097 5091 5086 5082 5079 5078 5074 5071 5067 5064 5061 5059 5056 5052 5049 5045 5042 5039 5037 5035